Terminal Aerodrome Forecast
Issued by NWS

Home | Current Version | Previous Version | Text Only | Print | Product List | Glossary On
Versions: 1 2 3 4 5 6 7 8 9 10 11 12 13 14 15 16 17 18 19 20 21
000
FTUS45 KABQ 190300 AAA
TAFAEG
TAF AMD
KAEG 190311Z 1903/1924 34005KT P6SM SCT035 BKN100
     FM190600 32005KT P6SM SCT100
     FM191600 34006KT P6SM FEW150=

USA.gov is the U.S. government's official web portal to all federal, state and local government web resources and services.